SCP
0 0 0 0 0 0 0 0 0 0 0 0 0 0 0 0 0 0 0 0 0 0 0 0 0 0 0 0 0 0 0 0 0 0 0 0 0 0 0 0 0 0 0
0 0 0 0 0 0 0 0 0 0 0 0 0 0 0 0 0 0 0 0 0 0 0 0 0 0 0 0 0 0 0 0 0 0 0 0 0 0 0 0 0 0 0
0 0 0 0 0 0 0 0 0 0 0 0 0 0 0 0 0 0 0 0 0 0 0 0 0 0 0 0 0 0 0 0 0 0 0 0 0 0 0 0 0 0 0
0 0 0 0 0 0 0 0 0 0 0 0 0 0 0 0 0 0 0 0 0 0 0 0 0 0 0 0 0 0 0 0 0 0 0 0 0 0 0 0 0 0 0
0 0 0 0 0 0 0 0 0 0 0 0 0 0 0 0 0 0 0 0 0 0 0 0 0 0 0 0 0 0 0 0 0 0 0 0 0 0 0 0 0 0 0
0 0 0 0 0 0 0 0 0 0 0 0 0 0 0 0 0 0 0 0 0 0 0 0 0 0 0 0 0 0 0 0 0 0 0 0 0 0 0 0 0 0 0
0 0 0 0 0 0 0 0 0 0 0 0 0 0 0 0 0 0 0 0 0 0 0 0 0 0 0 0 -0 0 0 0 0 0 0 0 0 0 0 0 0 0 0
0 0 0 0 0 0 0 0 0 0 0 0 0 0 0 0 0 0 0 0 0 0 0 0 0 0 0 0 -0 -0 0 0 0 0 0 0 0 0 0 0 0 0 0
0 0 0 0 0 0 0 0 0 0 0 0 0 0 0 0 0 0 0 0 0 0 0 0 0 0 0 0 0 0 0 0 0 0 0 0 0 0 0 0 0 0 0
0 0 0 0 0 0 0 0 0 0 0 0 0 0 0 0 0 0 0 0 0 0 0 0 0 0 0 0 0 0 0 0 0 0 0 0 0 0 0 0 0 0 0
0 0 0 0 0 0 0 0 0 0 0 0 0 0 0 0 0 0 0 0 0 0 0 0 0 0 0 0 0 0 0 0 0 0 0 0 0 0 0 0 0 0 0
0 0 0 0 0 0 0 0 0 0 0 0 0 0 0 0 0 0 0 0 0 0 0 0 0 0 0 0 0 0 0 0 0 0 0 0 0 0 0 0 0 0 0
0 0 0 0 0 0 0 0 0 0 0 0 0 0 0 0 0 0 0 0 0 0 0 0 0 0 0 0 0 0 0 0 0 0 0 0 0 0 0 0 0 0 0
0 0 0 0 0 0 0 0 0 0 0 0 0 0 0 0 0 0 0 0 0 0 0 0 0 0 0 0 0 0 0 0 0 0 0 0 0 0 0 0 0 0 0
0 0 0 0 0 0 0 0 0 0 0 0 0 0 0 0 0 0 0 0 0 0 0 0 0 0 0 0 0 0 0 0 0 0 0 0 0 0 0 0 0 0 0
0 0 0 0 0 0 0 0 0 0 0 0 0 0 0 0 0 0 0 0 0 0 0 0 0 0 0 0 0 0 0 0 0 0 0 0 0 0 0 0 0 0 0
0 0 0 0 0 0 0 0 0 0 0 0 0 0 0 0 0 0 0 0 0 0 0 0 0 0 0 0 0 0 0 0 0 0 0 0 0 0 0 0 0 0 0
0 0 0 0 0 0 0 0 0 0 0 0 0 0 0 0 0 0 0 0 0 0 0 0 0 0 0 0 0 0 0 0 0 0 0 0 0 0 0 0 0 0 0
0 0 0 0 0 0 0 0 0 0 0 0 0 0 0 0 0 0 0 0 0 0 0 0 0 0 0 0 0 0 0 0 0 0 0 0 0 0 0 0 0 0 0
0 0 0 0 0 0 0 0 0 0 0 0 0 0 0 0 0 0 0 0 0 0 0 0 0 0 0 0 0 0 0 0 0 0 0 0 0 0 0 0 0 0 0
0 0 0 0 0 0 0 0 0 0 0 0 0 0 0 0 0 0 0 0 0 0 0 0 0 0 0 0 0 0 0 0 0 0 0 0 0 0 0 0 0 0 0
0 0 0 0 0 0 0 0 0 0 0 0 0 0 0 0 0 0 0 0 0 0 0 0 0 0 0 0 0 0 0 0 0 0 0 0 0 0 0 0 0 0 0
0 0 0 0 0 0 0 0 0 0 0 0 0 0 0 0 0 0 0 0 0 0 0 0 0 0 0 0 0 0 0 0 0 0 -0 0 0 0 0 0 0 0 0
0 0 0 0 0 0 0 0 0 0 0 0 0 0 0 0 0 0 0 0 0 0 0 0 0 0 0 0 0 0 0 0 0 0 0 0 0 0 0 0 0 0 0
0 0 0 0 0 0 0 0 0 0 0 0 0 0 0 0 0 0 0 0 0 0 0 0 0 0 0 0 0 0 0 0 0 0 0 0 0 0 0 0 0 0 0
0 0 0 0 0 0 0 0 0 0 0 0 0 0 0 0 0 0 0 0 0 0 0 0 0 0 0 0 0 0 0 0 0 0 0 0 0 0 0 0 0 0 0
Wind_Speed
5 7 12 13 14 13 13 13 12 12 12 12 13 12 12 13 12 12 12 12 13 13 13 13 13 13 13 13 13 12 12 12 12 12 12 12 12 12 12 11 10 7 12
8 9 11 12 13 13 13 13 12 12 12 12 12 12 12 12 12 11 12 12 12 13 13 13 13 13 12 11 11 11 11 11 11 10 10 9 10 11 10 10 9 6 10
10 9 10 11 12 12 13 13 12 11 11 12 12 12 12 12 12 11 11 11 12 12 13 12 12 12 11 10 9 9 9 9 9 8 7 4 5 8 9 8 8 9 8
11 9 9 11 12 12 12 12 12 11 11 11 11 11 11 11 11 11 11 11 11 11 11 11 11 10 9 8 8 7 7 7 7 7 3 2 2 6 7 7 7 7 6
9 7 9 11 12 13 12 12 11 11 10 10 11 11 11 11 11 11 10 10 10 10 10 10 10 9 8 7 6 6 6 6 7 6 3 2 1 5 6 6 5 5 5
8 7 8 11 12 12 12 11 11 11 10 10 10 10 10 10 10 10 9 9 9 9 9 9 8 8 7 6 5 5 5 6 5 3 2 1 0 3 5 5 4 4 3
8 6 7 10 11 11 11 11 10 10 10 10 9 9 9 9 9 9 9 8 8 8 8 8 7 6 5 4 3 3 4 4 3 2 1 0 1 3 3 3 3 2 2
8 7 7 9 9 9 9 9 9 9 9 9 9 8 8 8 8 8 8 8 8 8 8 7 6 6 5 3 2 1 2 2 2 1 0 1 2 3 3 2 1 1 1
7 7 5 6 7 8 8 8 7 7 7 8 8 7 7 6 6 6 6 7 7 7 7 7 6 5 4 3 1 0 1 1 1 0 1 1 3 3 3 2 2 3 3
6 6 5 4 4 5 5 7 7 7 7 7 7 6 6 6 5 5 5 5 6 7 7 7 6 5 4 3 2 2 2 2 1 1 1 3 5 5 4 4 4 4 5
6 5 5 5 4 4 4 6 6 7 7 6 5 6 5 3 3 3 4 5 5 5 6 6 6 5 4 4 3 3 2 1 2 2 2 5 7 7 7 6 6 6 6
7 7 5 6 5 4 4 4 3 3 4 3 3 4 3 2 2 3 4 5 5 6 5 5 5 5 3 2 3 3 2 2 2 2 3 7 9 9 8 8 8 8 8
7 7 6 6 6 5 3 3 2 2 3 3 4 4 3 2 2 2 2 2 3 4 3 3 3 2 2 2 2 2 3 3 2 3 4 7 9 10 10 10 10 10 10
5 6 6 6 6 6 4 3 3 3 3 3 4 4 3 2 2 2 2 2 2 2 2 2 2 3 3 4 4 4 4 3 3 3 4 8 10 11 12 12 11 11 11
4 5 5 6 7 6 5 4 4 4 4 4 4 4 4 3 3 3 3 3 3 2 2 3 3 4 4 4 4 4 5 5 5 4 4 8 10 12 13 13 13 12 12
4 5 5 5 6 6 5 5 4 4 3 3 4 5 5 4 3 3 3 3 3 3 3 3 4 4 4 3 4 5 5 5 5 5 5 6 9 12 13 14 13 12 12
3 3 4 5 6 6 5 5 4 4 4 4 3 5 5 5 4 4 3 3 4 4 4 3 3 3 3 4 5 5 5 5 5 6 6 5 5 8 11 13 12 12 12
0 1 2 2 3 4 4 4 3 3 4 4 3 4 5 5 5 4 4 4 4 3 3 3 3 3 4 4 4 4 4 4 6 6 5 5 4 4 6 10 11 11 12
1 0 1 1 2 2 3 3 3 3 3 3 2 2 3 4 5 4 4 4 4 3 3 3 3 3 3 4 5 5 5 5 6 6 6 6 5 5 4 6 9 9 11
2 2 1 1 0 1 1 1 1 1 2 1 2 2 3 2 4 4 4 4 4 3 4 3 4 4 4 4 4 5 5 6 5 5 6 5 5 5 5 5 4 5 9
4 3 3 3 2 1 0 1 2 2 1 0 0 1 1 2 3 4 3 3 3 4 5 5 4 4 4 2 2 4 5 5 6 5 5 4 5 5 4 5 4 4 4
4 3 3 2 2 2 1 1 1 1 0 0 0 1 1 2 2 2 3 3 4 4 4 4 4 4 3 3 2 2 4 3 3 4 4 4 5 4 4 5 4 4 4
5 4 3 3 3 3 3 2 2 1 1 1 2 2 2 2 2 2 2 2 3 4 4 5 4 5 5 4 4 4 3 4 3 3 3 4 4 3 4 4 4 5 4
5 5 5 4 4 4 3 3 3 1 1 2 2 2 2 3 3 3 2 2 2 2 3 3 4 4 4 5 3 4 4 3 3 3 3 3 4 4 4 4 4 4 4
5 5 5 6 6 5 4 3 2 2 2 3 3 3 3 3 3 3 3 3 3 3 3 4 3 3 3 4 4 3 3 4 5 5 5 4 3 3 4 4 3 3 4
7 7 6 7 7 6 5 4 4 3 4 4 4 4 3 3 3 4 3 3 3 3 3 4 4 4 4 4 4 3 3 3 3 4 6 5 5 3 3 3 3 4 4
Wind_Direction
156 165 160 155 151 147 142 138 134 131 126 125 122 116 113 112 110 111 110 111 109 107 105 103 100 96 93 91 90 87 85 84 83 83 84 84 85 85 82 78 75 67 76
148 154 153 153 151 147 144 141 137 136 133 129 128 123 119 117 116 116 114 112 111 108 106 104 103 99 97 96 94 91 87 82 80 80 80 81 85 85 84 84 83 80 79
142 150 150 149 147 146 145 143 142 140 139 136 133 130 124 121 120 120 119 115 113 110 109 107 106 104 102 100 96 93 87 84 78 78 77 63 76 88 89 86 83 81 80
141 146 148 146 147 145 143 143 145 143 141 139 138 135 130 127 125 123 120 119 118 115 113 112 110 109 107 103 98 91 82 80 75 82 72 66 67 92 93 91 86 84 81
137 140 144 144 147 146 144 144 143 143 142 142 141 137 134 132 129 128 125 123 123 122 119 117 116 115 112 106 100 87 71 65 76 80 77 76 67 102 99 97 92 86 82
134 135 143 145 149 148 147 146 145 145 143 143 143 141 140 139 137 135 133 130 130 131 129 125 123 121 119 112 102 80 62 64 77 73 72 77 88 117 115 113 108 101 98
133 135 144 146 148 148 149 149 149 148 146 144 143 143 143 145 144 144 142 140 138 141 138 135 134 130 129 125 109 77 55 59 81 78 75 88 164 138 128 124 126 126 122
137 138 143 145 146 148 150 150 151 151 149 149 147 143 141 144 151 153 153 151 151 151 149 146 147 146 145 144 134 62 40 54 72 73 244 211 208 177 159 156 170 196 211
135 136 138 144 148 150 150 151 150 149 149 148 148 143 141 141 145 151 158 162 165 164 161 160 164 165 170 176 198 307 359 7 44 241 231 215 223 216 214 221 235 245 251
134 140 142 141 143 147 150 152 152 151 148 146 144 142 147 150 150 154 159 167 172 174 173 172 176 184 190 199 216 250 285 315 287 259 236 228 229 232 239 247 253 257 259
147 152 152 152 148 149 155 160 157 156 157 153 153 157 154 158 160 165 179 184 183 179 181 184 190 196 201 218 232 251 268 264 259 249 238 235 234 241 249 255 258 259 261
170 172 168 167 165 161 169 160 162 164 164 162 165 169 167 169 179 181 191 193 195 194 194 197 206 213 213 229 249 257 250 254 252 248 242 241 242 248 253 257 258 259 261
176 178 180 179 175 171 169 165 172 169 168 176 181 183 179 179 185 190 188 205 209 203 205 214 220 224 226 228 236 237 240 246 243 247 248 245 248 255 259 262 262 262 261
175 184 183 182 179 179 174 173 179 180 182 188 195 191 182 185 194 198 198 203 205 210 211 217 221 228 234 237 235 237 239 237 239 241 246 245 248 255 262 264 265 265 264
178 186 188 186 183 181 178 183 183 190 195 197 194 197 192 192 199 200 204 205 211 213 217 225 228 233 239 244 242 241 244 240 242 242 251 249 248 253 261 264 265 267 266
203 197 188 188 189 182 183 187 187 192 193 196 200 200 197 197 201 200 204 209 215 215 216 219 229 230 235 238 247 246 246 250 249 247 246 251 250 252 258 261 264 266 268
215 203 200 198 192 186 187 190 190 190 192 197 210 208 201 200 201 204 205 215 221 217 218 222 233 236 236 239 247 250 250 250 252 253 250 247 249 251 251 256 260 263 265
213 197 210 205 193 197 195 190 189 193 195 199 206 209 207 208 204 204 209 219 223 216 213 219 223 237 243 241 247 252 251 252 253 253 254 251 246 246 245 248 253 257 260
60 158 197 196 194 207 202 195 195 191 197 201 198 202 212 217 212 209 217 222 217 218 219 222 225 223 244 251 251 254 254 254 255 256 255 251 244 241 240 244 245 248 254
32 48 37 359 296 204 200 187 193 202 210 204 208 217 211 223 223 216 225 228 218 219 224 222 231 233 235 248 259 259 258 256 254 249 249 249 245 241 238 240 244 248 247
34 36 36 39 23 44 251 223 212 211 225 248 288 299 251 243 235 220 228 231 228 229 232 225 225 235 238 228 259 275 268 255 251 249 246 245 248 248 241 237 238 242 248
31 31 31 28 30 29 333 257 242 225 196 195 313 336 338 320 301 253 239 239 232 233 241 239 234 236 238 209 215 262 282 290 266 253 246 238 244 246 244 241 239 238 240
21 21 22 20 29 25 18 26 27 41 13 8 350 331 324 321 334 329 297 279 259 237 239 240 236 238 248 240 217 218 240 254 291 276 247 241 242 243 248 248 242 241 238
15 16 25 21 23 24 32 39 48 34 323 314 331 342 352 2 355 341 335 327 311 281 263 253 244 246 245 253 251 234 237 236 252 282 279 253 245 246 248 249 247 248 241
24 28 26 28 27 25 36 41 43 20 355 1 8 358 345 342 345 344 332 332 332 316 296 272 259 254 249 256 255 261 259 257 246 256 273 273 271 251 243 242 243 247 249
24 30 28 31 26 21 29 34 38 27 18 16 9 357 344 335 336 342 335 331 319 310 307 297 276 261 251 255 255 253 251 250 255 254 264 273 271 266 252 244 242 245 245